GFSMW_sfc_rhum_015.txt.gz
RH
32 36 39 41 38 41 44 69 71 77 65 55 51 46 42 40 39 33 36 36 34 32 37 33 34 36 36 39 41 40 42 31 30 28 32 31 32 32 24 25 29 36 31
35 40 43 46 47 49 50 71 63 62 50 40 37 36 37 38 32 33 37 34 36 32 32 41 39 39 38 41 40 40 40 34 32 34 34 39 30 25 27 27 28 36 27
36 43 46 48 51 54 56 55 49 45 38 36 38 39 40 37 33 33 31 36 38 35 36 39 40 43 40 35 41 40 45 40 36 37 35 40 38 34 28 31 27 37 29
35 41 45 48 47 48 44 40 37 36 38 35 32 34 32 34 37 34 34 35 36 38 34 33 38 41 39 40 38 31 42 44 40 36 30 37 37 40 40 27 26 27 26
38 38 37 36 36 39 39 38 34 31 33 35 37 36 38 35 34 35 37 35 30 26 22 23 29 34 38 42 45 47 46 41 42 40 39 38 33 33 32 34 28 24 22
33 29 30 31 34 36 39 38 34 34 36 38 41 43 41 36 32 30 25 22 21 21 23 23 32 34 37 44 43 45 47 55 54 39 37 36 34 31 32 34 36 34 27
29 27 28 28 33 39 41 38 35 36 38 38 36 35 31 28 26 25 23 26 24 24 27 32 36 36 37 40 43 56 58 61 50 44 40 33 34 33 33 34 35 34 28
28 26 28 30 34 39 38 35 34 35 33 30 27 26 25 30 23 26 27 26 26 27 31 33 39 41 41 53 60 62 65 57 44 43 42 37 35 33 32 34 36 45 37
27 28 28 31 35 37 38 38 33 28 26 28 29 32 36 32 29 30 31 28 30 26 30 36 38 40 52 58 59 65 55 54 44 42 40 36 33 33 31 30 32 45 64
27 28 30 34 35 35 36 35 28 25 29 29 32 34 31 29 30 31 32 32 33 33 34 35 36 38 56 52 61 48 40 44 40 33 38 40 39 38 35 31 36 36 46
28 30 32 34 34 36 34 31 26 29 28 27 29 32 30 30 30 31 32 33 35 34 34 36 37 38 38 43 47 44 46 52 40 37 43 42 40 41 40 39 36 36 37
26 30 33 35 35 35 31 29 30 29 27 26 29 29 29 28 29 31 31 34 35 35 35 37 37 36 37 44 45 46 42 43 37 41 44 42 34 44 42 35 37 37 36
27 30 33 35 35 33 31 29 30 27 26 28 23 25 26 29 30 32 33 34 34 35 37 37 37 36 40 44 48 46 38 36 40 44 44 48 46 45 38 39 41 39 32
29 31 33 34 35 32 29 29 31 32 31 19 20 22 27 30 31 32 34 35 35 38 38 37 38 40 37 34 33 32 37 40 42 50 45 42 39 40 46 42 44 41 47
31 33 33 33 32 31 29 28 34 37 25 22 21 25 28 30 30 31 34 35 40 36 35 37 41 47 38 32 46 42 45 46 45 42 35 34 42 47 49 44 49 50 50
31 32 32 30 31 29 27 29 36 31 27 27 28 26 28 30 31 34 38 37 37 35 35 36 39 52 40 84 72 59 44 40 39 39 36 35 46 46 54 57 58 56 56
30 32 32 31 30 28 28 33 29 27 27 27 26 27 30 30 33 31 29 32 36 37 38 36 38 50 52 77 65 61 42 42 41 39 37 34 28 44 40 52 58 57 62
29 30 30 32 30 28 26 30 25 25 27 26 26 28 27 26 27 29 29 33 37 39 38 37 40 43 55 67 60 60 50 45 42 40 41 40 40 47 57 52 49 43 39
28 28 29 30 31 28 25 27 26 24 25 30 28 22 26 28 28 29 32 36 40 40 39 36 38 39 51 65 59 58 50 50 49 44 42 40 39 63 64 58 56 46 42
27 29 30 31 30 27 25 27 25 33 28 26 24 26 25 26 28 31 36 38 40 40 35 37 39 57 51 64 60 57 57 61 57 49 44 50 52 62 62 67 64 68 50
28 30 32 31 29 25 27 35 32 32 23 27 29 27 27 30 34 37 38 40 43 44 51 52 51 51 55 60 62 58 62 64 61 54 50 48 60 59 62 64 64 70 58
32 34 33 30 27 31 37 40 39 27 31 32 33 32 33 37 37 44 44 44 44 49 53 79 64 58 57 66 66 62 65 63 71 67 58 64 66 62 63 60 54 61 66
31 29 28 36 44 49 45 37 36 34 34 37 40 40 42 44 44 48 50 48 43 49 56 62 75 61 63 72 69 70 66 69 78 68 67 68 66 59 58 49 55 67 58
25 27 44 57 58 57 48 34 42 45 45 46 52 52 51 50 52 51 48 47 50 55 58 63 61 58 52 52 62 70 70 76 75 74 68 68 72 70 71 66 54 54 56
51 60 71 74 59 42 39 41 45 48 54 60 57 55 63 60 51 47 52 60 56 61 61 62 62 89 86 63 66 69 72 75 74 77 75 68 65 61 60 56 54 57 55
76 82 74 52 44 45 46 49 50 55 63 68 65 64 61 60 52 54 58 70 80 80 73 71 77 90 78 76 72 72 69 66 72 71 72 75 82 77 66 62 59 58 59

GFSMW_sfc_rhum_021.txt.gz
RH
44 41 46 48 64 70 66 81 86 91 90 94 96 92 82 79 71 62 57 58 58 58 64 66 67 67 69 70 69 67 65 66 70 65 62 57 55 49 54 54 54 51 47
49 49 54 60 68 78 88 89 85 87 82 79 80 78 75 72 65 64 62 58 60 56 59 64 66 66 66 68 68 68 70 73 70 66 74 71 62 59 53 57 51 52 51
53 55 59 70 84 94 94 90 85 80 81 81 69 67 64 66 66 67 64 60 57 53 53 56 58 63 70 72 71 71 71 73 69 67 68 77 79 70 58 47 51 50 53
50 56 65 88 94 95 94 88 83 86 84 71 59 52 60 66 73 72 69 56 44 41 40 50 56 59 65 62 75 64 75 76 78 76 61 67 70 69 70 55 52 51 44
52 60 71 83 84 82 79 89 83 71 63 62 68 63 63 67 64 58 47 41 46 43 44 50 52 58 69 69 71 77 80 84 86 84 78 69 66 60 63 70 61 54 51
60 64 69 68 70 71 66 55 55 62 61 61 66 63 61 49 47 46 48 45 49 54 51 46 57 63 66 72 82 79 80 88 86 84 78 68 67 64 65 70 68 64 58
62 66 71 72 70 63 54 56 60 64 59 54 48 48 50 46 43 44 51 48 48 53 51 53 58 62 68 77 78 81 88 87 87 84 75 71 67 63 63 66 68 69 63
60 60 59 64 67 61 59 59 60 61 59 52 48 46 43 51 49 49 48 52 52 54 54 54 57 58 63 75 79 86 89 85 90 81 81 74 70 66 63 62 68 77 71
60 54 56 58 62 63 62 62 60 57 48 47 49 48 48 51 51 49 49 54 54 40 53 56 56 59 60 71 79 87 82 89 89 87 78 68 69 70 71 69 66 76 92
49 48 50 56 57 59 61 63 58 47 49 52 54 50 50 52 50 52 52 49 53 49 54 55 58 58 58 62 80 82 82 77 78 72 67 66 71 70 74 66 70 71 81
43 43 47 51 55 56 61 63 55 47 50 49 52 54 52 53 50 51 52 49 52 50 50 53 55 57 60 63 65 67 66 70 75 72 71 67 66 74 73 75 74 71 72
41 41 45 52 56 56 57 63 49 46 47 51 53 52 54 48 49 49 48 55 52 52 51 52 55 59 59 59 60 66 66 71 64 67 70 71 56 71 74 72 67 67 68
42 40 48 51 54 55 57 57 47 47 45 45 50 53 49 48 47 46 49 54 53 54 51 50 57 61 53 55 59 63 66 65 69 67 68 70 68 69 71 65 67 70 56
40 40 47 49 50 52 55 51 54 47 43 43 44 46 49 48 47 48 48 51 55 53 51 54 58 63 56 54 54 60 66 66 64 68 67 65 60 58 59 56 63 60 75
41 44 47 50 49 53 55 54 56 50 46 46 44 45 52 48 48 50 50 52 54 51 53 57 61 61 60 52 62 58 63 62 64 64 55 56 54 53 56 55 67 74 81
31 39 49 50 49 55 56 52 52 54 50 56 51 44 49 49 54 53 52 54 56 55 57 58 57 60 54 77 69 64 61 57 62 65 64 58 58 64 62 60 61 64 80
35 38 49 52 51 56 50 54 51 54 58 58 44 49 56 53 52 45 47 45 47 53 55 57 59 62 74 79 72 65 58 60 73 68 63 57 54 67 66 64 63 64 62
36 37 42 48 53 57 55 54 51 56 53 44 48 52 52 47 46 45 46 53 56 56 58 58 59 74 72 81 74 67 60 69 74 68 67 66 72 72 68 72 74 75 71
37 37 39 45 50 51 53 50 52 46 42 45 51 55 54 52 54 56 61 61 61 61 62 59 60 79 83 80 72 63 73 77 76 70 68 69 64 67 58 72 77 78 74
44 43 44 43 47 51 41 41 46 58 68 66 59 56 55 57 59 63 67 64 61 60 62 61 66 77 84 79 70 65 93 83 91 80 72 64 69 59 61 85 84 90 75
47 52 53 54 57 51 52 54 62 75 69 68 64 61 58 64 66 64 62 64 66 68 82 80 76 82 84 83 73 68 82 90 93 89 89 85 65 66 68 66 86 88 77
54 55 60 64 64 62 69 77 78 66 64 68 66 68 70 65 54 65 69 70 75 83 86 88 89 92 90 81 80 77 73 76 90 85 90 93 73 68 68 73 72 70 78
60 69 76 74 72 68 71 76 72 67 72 75 70 73 70 66 63 69 71 77 83 94 94 94 97 94 94 93 84 80 79 77 90 91 86 80 75 72 80 78 73 81 90
71 72 73 71 72 66 62 60 60 63 69 75 78 77 78 78 76 71 74 81 94 96 96 96 95 93 94 95 96 88 88 86 87 85 86 93 93 94 89 89 84 92 94
74 74 77 77 70 61 61 60 67 69 73 77 80 83 90 86 85 82 84 89 83 86 90 92 92 93 91 96 93 89 91 94 88 97 98 98 97 95 94 95 93 94 95
80 73 72 68 63 61 63 63 62 66 75 82 92 93 94 94 91 90 89 81 82 80 82 83 90 91 87 89 97 99 95 85 90 96 98 97 96 96 94 95 93 96 93

GFSMW_sfc_rhum_024.txt.gz
RH
44 51 64 66 67 81 76 86 90 94 87 93 96 97 91 89 82 70 64 65 66 64 68 73 70 71 69 72 68 69 67 68 74 65 65 65 62 59 60 57 54 50 50
48 49 57 66 72 79 80 88 86 91 79 76 96 90 84 76 70 69 67 64 64 61 62 70 72 70 69 69 69 71 75 79 74 69 79 74 67 60 54 58 50 53 52
49 59 61 70 76 80 92 91 91 88 85 78 89 80 74 74 71 72 69 66 64 56 57 58 60 62 65 67 74 77 72 75 78 74 71 76 82 75 65 54 56 53 57
49 60 77 84 82 88 96 91 88 83 87 88 78 70 63 62 73 74 74 57 47 51 51 54 59 64 69 68 75 74 83 81 83 82 66 71 71 70 71 60 56 55 47
52 66 92 89 90 96 94 93 92 94 92 76 69 66 71 77 79 71 50 49 52 54 52 55 61 68 74 76 83 86 87 87 89 86 83 73 70 68 68 72 65 60 56
62 74 89 90 95 94 95 97 92 79 77 74 73 71 66 61 55 54 53 55 60 60 53 56 61 65 74 82 83 84 86 88 88 89 84 73 70 68 69 75 73 69 61
73 81 90 94 94 95 91 70 62 66 66 66 67 56 48 45 44 48 54 55 53 54 57 59 62 67 76 80 82 86 88 88 90 87 81 79 76 70 68 72 72 72 68
72 80 84 85 85 78 66 63 54 57 52 51 51 49 49 52 51 50 52 56 56 56 54 55 58 61 63 77 84 89 91 88 91 86 86 82 74 73 69 69 73 81 76
81 78 77 73 73 66 73 65 54 49 45 49 49 49 52 53 54 51 53 57 54 48 58 59 59 60 59 63 79 91 87 87 89 88 87 81 76 75 75 72 70 78 94
71 70 67 67 59 59 63 67 56 47 48 52 52 49 50 50 53 54 54 54 52 51 54 54 57 58 61 67 75 89 85 84 82 77 81 73 73 72 77 70 74 74 80
63 64 63 61 58 59 63 63 54 47 46 46 54 54 52 53 53 54 54 56 53 52 51 54 55 55 62 62 64 66 70 75 78 78 76 74 73 77 74 77 67 66 63
56 55 58 61 63 62 65 62 54 46 43 48 54 52 52 54 52 54 52 59 54 56 54 54 54 58 63 62 62 65 67 75 71 71 73 71 57 71 74 73 66 66 67
52 51 56 60 62 60 62 62 54 47 45 47 50 52 55 55 53 55 58 61 57 60 58 54 54 59 65 61 61 65 68 68 69 68 69 70 72 70 72 65 65 69 56
50 48 52 56 58 58 59 64 55 51 47 46 48 52 55 54 58 58 60 62 62 63 58 57 59 63 64 60 58 64 67 68 65 68 68 65 61 60 62 60 63 63 75
52 51 54 57 60 64 66 62 58 56 51 48 48 54 56 61 61 61 60 62 64 57 57 60 64 66 64 59 66 62 67 65 65 65 56 59 58 58 59 60 72 75 82
42 46 54 60 61 62 66 67 63 56 53 51 49 50 65 60 60 57 58 59 59 55 58 62 68 68 58 70 76 70 66 60 62 65 65 58 57 65 66 63 61 64 76
49 59 60 58 57 64 66 67 65 58 52 52 53 62 58 56 59 56 54 53 55 58 59 61 66 68 72 81 77 72 61 60 69 72 63 58 58 68 63 62 60 61 58
42 46 59 62 62 66 63 64 60 60 61 54 56 56 55 58 57 62 65 68 68 64 66 66 65 68 73 83 78 72 62 66 75 73 69 70 69 70 67 69 69 70 70
56 56 56 61 65 67 64 62 59 51 54 61 57 57 64 64 69 73 75 77 69 67 66 63 68 70 80 85 79 68 68 74 77 72 71 70 72 69 64 71 74 74 72
54 56 58 54 51 54 58 67 71 70 72 67 63 63 66 73 80 84 81 72 68 65 68 71 70 77 84 86 79 69 88 83 88 81 75 66 66 70 64 85 86 90 72
59 62 64 67 67 68 69 72 73 74 65 67 76 84 83 84 85 78 69 67 74 79 84 86 86 82 85 88 80 76 80 84 86 87 85 83 69 66 68 71 89 89 75
68 68 72 75 72 67 65 70 76 77 82 82 82 86 84 72 62 71 75 74 77 84 89 94 92 95 90 84 83 81 76 77 87 86 84 89 75 72 73 73 77 77 85
76 72 72 74 71 71 68 73 73 74 84 83 77 78 75 77 76 80 81 82 83 94 93 97 97 94 97 92 84 84 83 81 87 85 82 77 76 75 79 76 77 85 94
78 74 69 70 72 66 64 70 70 72 76 78 80 83 87 85 86 86 83 88 94 95 92 92 93 93 96 95 93 91 90 87 87 84 83 89 92 95 94 95 87 93 96
85 84 82 76 70 67 67 67 71 72 75 78 83 86 94 90 92 90 91 92 90 90 89 87 90 93 93 90 88 93 97 95 94 96 97 98 99 97 96 96 94 95 96
81 78 75 73 70 68 67 66 66 70 76 81 89 93 95 95 94 94 91 86 87 86 87 85 89 89 86 86 85 91 94 93 95 97 98 96 96 97 95 94 95 96 95

GFSMW_sfc_rhum_030.txt.gz
RH
76 77 76 88 95 96 96 95 96 97 93 96 96 97 96 96 87 78 73 79 75 72 76 80 78 76 73 73 70 73 74 79 77 69 71 70 70 64 61 57 55 51 51
84 78 85 92 94 94 94 96 95 96 87 81 95 93 95 93 84 77 77 75 74 74 74 78 77 74 73 73 77 75 81 84 82 76 78 77 68 66 59 58 53 57 54
82 80 84 92 92 93 95 94 94 94 86 84 94 91 90 81 79 79 79 76 75 73 69 67 67 67 69 72 80 80 76 79 83 80 74 76 76 77 69 60 59 60 59
66 71 81 92 92 92 93 92 92 92 89 92 87 86 85 83 86 80 81 66 63 62 60 65 71 74 75 77 82 79 84 82 82 82 70 74 74 76 78 65 62 62 53
57 65 69 80 87 92 94 94 94 94 90 92 90 92 94 94 92 82 63 63 65 62 62 68 69 75 81 77 75 82 85 87 87 85 85 82 77 74 73 71 64 61 60
62 61 66 80 91 95 96 98 97 95 94 92 95 95 92 92 82 80 67 75 68 68 62 64 70 72 76 77 80 87 85 87 88 88 90 82 74 72 75 76 73 70 64
67 79 82 83 90 96 96 97 94 96 97 96 96 92 84 78 72 59 65 62 65 71 67 67 64 73 77 78 83 88 86 89 89 88 89 85 80 78 76 75 75 73 68
57 79 85 84 90 94 96 94 95 95 98 96 95 86 77 77 63 57 56 53 56 57 57 60 63 60 72 82 83 86 91 92 92 90 92 88 88 83 76 74 76 78 74
67 72 89 90 94 94 95 94 97 95 96 95 88 79 79 69 65 74 60 59 58 55 59 59 64 63 61 65 76 85 89 93 92 92 92 91 89 87 82 77 76 82 93
86 88 93 94 94 93 93 97 95 92 86 88 79 73 76 75 72 61 65 68 65 53 61 64 61 63 63 66 72 80 89 93 93 88 84 87 86 84 83 80 79 81 82
91 94 95 95 96 96 96 94 85 77 76 75 73 75 76 73 70 66 65 56 56 61 64 61 62 60 62 67 72 83 87 82 79 81 84 83 84 86 85 81 79 78 77
89 93 94 94 96 94 92 89 79 68 69 71 77 79 72 72 66 58 52 56 56 61 58 62 61 61 62 68 72 71 64 73 78 79 83 84 73 84 83 81 75 68 67
87 90 92 92 90 90 90 89 79 73 79 74 75 73 67 58 54 52 54 60 61 62 62 62 62 62 65 70 73 72 72 74 76 79 80 78 80 82 81 76 72 68 57
81 88 91 90 84 80 88 87 85 75 76 69 67 65 60 57 57 56 60 63 63 64 63 63 64 66 65 66 70 70 75 77 78 80 80 78 81 80 76 70 68 63 67
78 81 84 88 86 88 89 89 84 83 78 72 67 62 66 65 64 70 68 70 67 63 62 64 64 67 71 64 73 75 78 79 81 81 78 78 75 68 64 59 65 66 72
75 72 73 76 81 88 90 91 83 77 74 75 70 74 76 78 77 68 70 71 69 64 61 64 70 78 68 73 78 82 83 80 78 76 73 65 66 72 74 74 63 67 78
65 70 77 72 72 82 87 88 85 80 78 74 74 83 84 80 78 67 63 64 67 70 76 80 85 83 74 79 82 85 88 82 76 73 69 66 55 69 69 76 76 74 69
62 64 69 74 84 89 88 83 78 78 78 82 83 82 73 66 68 67 70 79 83 90 91 92 80 74 68 78 81 85 90 81 76 73 72 71 66 69 71 74 73 68 64
70 72 78 77 75 71 70 69 70 71 72 75 74 72 72 73 78 85 91 93 94 96 95 79 81 77 81 82 83 89 91 80 74 69 73 72 71 70 72 75 74 68 66
76 79 81 79 78 78 70 72 75 76 80 82 87 83 82 86 90 95 96 97 94 84 82 75 81 84 88 83 83 89 93 86 81 77 76 78 74 74 76 87 84 86 71
80 78 79 82 83 76 73 82 87 95 95 95 95 92 91 93 93 92 91 92 94 86 88 87 86 86 89 88 84 86 92 87 84 77 76 77 80 81 75 76 88 86 74
82 81 84 87 87 86 85 95 98 96 93 91 91 93 93 89 85 92 91 87 88 91 90 92 89 91 88 83 84 87 89 88 89 84 81 82 78 77 78 76 81 78 89
81 80 81 85 85 85 88 94 93 76 78 81 83 83 81 83 87 90 91 94 92 96 92 91 91 87 90 91 84 86 89 90 93 86 85 82 79 81 93 81 80 84 93
82 77 74 77 80 77 77 80 79 78 79 82 85 88 89 91 89 90 91 95 96 96 90 91 90 89 88 95 91 89 92 94 94 94 90 88 90 94 94 95 88 87 92
83 78 75 76 82 84 90 89 88 86 88 90 91 93 95 94 94 91 95 95 93 93 92 91 93 93 90 84 85 85 90 94 92 98 98 98 98 97 95 95 94 95 96
77 75 78 84 96 94 95 93 89 90 90 89 93 97 98 98 94 93 86 82 84 84 86 88 92 89 87 86 88 85 83 90 91 98 98 97 98 96 93 94 93 95 95